DLH733 ZSPD-EDDF

Flight info

Callsign DLH733
Flight time N/A
Altitude 36100
Route PIK91D PIKAS G330 PIMOL A593 DALIM W157 BEKDO/K0911S1130 W157 VYK G212 SOTMU/K0909S1100 B339 ASILA A575 UPREK W28 VERMI/K0891S1160 W28 LAGEB W66 NUKTI B215 KABDO W119 GOBOK A343 RULAD/K0896F400 M610 ARBOL Z621 GENDI N147 OTBOR/N0481F400 A480 TIMGA B476 METKA L88 RASAM N199 LUSAL M11 REBLO UM11 CRM UL746 ODERO DCT OPT DCT TEGRI DCT ARSIN DCT SUBEN DCT AKINI T161 DEBHI DEBHI1B
Aircraft A359/H-SADE2E3GHIJ2J3J4J5M1P2RWXYZ/LB1D1

Departure

Time N/A
Airport Shanghai Pudong International Airport (ZSPD)

Arrival

Time 2026-05-03 22:59
Airport Frankfurt Main Airport (EDDF)
Time Latitude Longitude Altitude Speed Heading
2026-05-03 20:15 41.67264 34.90475 39873 ft 491 kts 283°
2026-05-03 20:15 41.69340 34.81763 39873 ft 491 kts 283°
2026-05-03 20:16 41.71397 34.73106 39878 ft 491 kts 283°
2026-05-03 20:16 41.73463 34.64378 39877 ft 492 kts 283°
2026-05-03 20:17 41.75524 34.55635 39877 ft 492 kts 283°
2026-05-03 20:17 41.77580 34.46892 39878 ft 492 kts 283°
2026-05-03 20:18 41.79624 34.38144 39890 ft 493 kts 283°
2026-05-03 20:18 41.81666 34.29375 39885 ft 493 kts 283°
2026-05-03 20:19 41.83703 34.20596 39890 ft 493 kts 283°
2026-05-03 20:19 41.85733 34.11822 39903 ft 493 kts 284°
2026-05-03 20:20 41.87758 34.03030 39894 ft 493 kts 283°
2026-05-03 20:20 41.89774 33.94242 39899 ft 493 kts 283°
2026-05-03 20:21 41.91785 33.85442 39904 ft 493 kts 283°
2026-05-03 20:21 41.93789 33.76635 39910 ft 493 kts 284°
2026-05-03 20:22 41.95780 33.67813 39907 ft 493 kts 283°
2026-05-03 20:22 41.97529 33.58909 39910 ft 492 kts 281°
2026-05-03 20:23 41.99174 33.49981 39921 ft 492 kts 281°
2026-05-03 20:23 42.00835 33.41105 39904 ft 494 kts 281°
2026-05-03 20:24 42.02545 33.32097 39902 ft 494 kts 281°
2026-05-03 20:24 42.04246 33.23149 39898 ft 494 kts 281°
2026-05-03 20:25 42.05929 33.14251 39904 ft 494 kts 281°
2026-05-03 20:25 42.07622 33.05283 39899 ft 495 kts 282°
2026-05-03 20:26 42.09440 32.96330 39903 ft 496 kts 283°
2026-05-03 20:26 42.11300 32.87393 39904 ft 496 kts 283°
2026-05-03 20:27 42.13137 32.78443 39906 ft 497 kts 283°
2026-05-03 20:27 42.14964 32.69429 39901 ft 499 kts 282°
2026-05-03 20:28 42.16782 32.60396 39907 ft 499 kts 282°
2026-05-03 20:28 42.18594 32.51371 39906 ft 499 kts 282°
2026-05-03 20:29 42.20391 32.42328 39907 ft 499 kts 282°
2026-05-03 20:29 42.22182 32.33288 39908 ft 499 kts 282°
2026-05-03 20:30 42.23967 32.24242 39918 ft 499 kts 282°
2026-05-03 20:30 42.25753 32.15191 39923 ft 499 kts 282°
2026-05-03 20:31 42.27520 32.06127 39923 ft 500 kts 282°
2026-05-03 20:31 42.29287 31.97051 39926 ft 500 kts 282°
2026-05-03 20:32 42.31052 31.87963 39927 ft 500 kts 282°
2026-05-03 20:32 42.32809 31.78885 39937 ft 500 kts 282°
2026-05-03 20:33 42.34560 31.69792 39935 ft 500 kts 282°
2026-05-03 20:33 42.36303 31.60695 39940 ft 500 kts 282°
2026-05-03 20:34 42.38044 31.51571 39950 ft 501 kts 282°
2026-05-03 20:34 42.39765 31.42507 39947 ft 501 kts 282°
2026-05-03 20:35 42.41493 31.33364 39955 ft 501 kts 282°
2026-05-03 20:35 42.43213 31.24219 39960 ft 502 kts 282°
2026-05-03 20:36 42.44925 31.15071 39963 ft 502 kts 282°
2026-05-03 20:36 42.46635 31.05893 39974 ft 504 kts 282°
2026-05-03 20:37 42.48338 30.96690 39976 ft 503 kts 282°
2026-05-03 20:37 42.50028 30.87509 39982 ft 503 kts 281°
2026-05-03 20:38 42.51715 30.78295 39987 ft 504 kts 282°
2026-05-03 20:38 42.53395 30.69089 39983 ft 503 kts 281°
2026-05-03 20:39 42.55068 30.59871 39985 ft 504 kts 281°
2026-05-03 20:39 42.56733 30.50650 39990 ft 502 kts 281°
2026-05-03 20:40 42.58391 30.41433 39997 ft 504 kts 281°
2026-05-03 20:40 42.60061 30.32184 40004 ft 504 kts 283°
2026-05-03 20:41 42.62881 30.23554 40002 ft 507 kts 303°
2026-05-03 20:41 42.67051 30.15728 40014 ft 509 kts 306°
2026-05-03 20:42 42.71393 30.08123 40022 ft 515 kts 307°
2026-05-03 20:42 42.75780 30.00460 40031 ft 510 kts 307°
2026-05-03 20:43 42.80086 29.92858 40028 ft 506 kts 307°
2026-05-03 20:43 42.84359 29.85260 40029 ft 503 kts 307°
2026-05-03 20:44 42.88581 29.77729 40042 ft 499 kts 306°
2026-05-03 20:44 42.92799 29.70182 40043 ft 501 kts 307°
2026-05-03 20:45 42.97020 29.62618 40045 ft 501 kts 307°
2026-05-03 20:45 43.01221 29.55070 40049 ft 500 kts 307°
2026-05-03 20:46 43.05428 29.47491 40048 ft 500 kts 307°
2026-05-03 20:46 43.09641 29.39882 40059 ft 503 kts 307°
2026-05-03 20:47 43.13843 29.32274 40078 ft 499 kts 307°
2026-05-03 20:47 43.18028 29.24675 40059 ft 500 kts 307°
2026-05-03 20:48 43.22206 29.17070 40073 ft 497 kts 307°
2026-05-03 20:48 43.26340 29.09525 40075 ft 494 kts 307°
2026-05-03 20:49 43.30483 29.01946 40075 ft 499 kts 307°
2026-05-03 20:49 43.34636 28.94329 40080 ft 497 kts 307°
2026-05-03 20:50 43.38782 28.86703 40079 ft 500 kts 308°
2026-05-03 20:50 43.42946 28.79028 40087 ft 500 kts 308°
2026-05-03 20:51 43.47094 28.71362 40104 ft 498 kts 307°
2026-05-03 20:51 43.51213 28.63725 40113 ft 496 kts 307°
2026-05-03 20:52 43.54621 28.57395 40101 ft 495 kts 307°
2026-05-03 20:52 43.58715 28.49771 40096 ft 494 kts 307°
2026-05-03 20:53 43.63465 28.40901 40094 ft 494 kts 307°
2026-05-03 20:53 43.66882 28.34503 40109 ft 494 kts 307°
2026-05-03 20:54 43.70954 28.26860 40099 ft 494 kts 307°
2026-05-03 20:54 43.77056 28.15372 40102 ft 495 kts 307°
2026-05-03 20:55 43.81100 28.07732 40122 ft 496 kts 307°
2026-05-03 20:55 43.85164 28.00010 40118 ft 496 kts 306°
2026-05-03 20:56 43.88763 27.91847 40123 ft 497 kts 301°
2026-05-03 20:56 43.92143 27.83488 40128 ft 497 kts 300°
2026-05-03 20:57 43.95478 27.75092 40123 ft 497 kts 300°
2026-05-03 20:57 43.98820 27.66690 40134 ft 497 kts 300°
2026-05-03 20:58 44.02169 27.58285 40132 ft 497 kts 300°
2026-05-03 20:58 44.05505 27.49896 40134 ft 496 kts 300°
2026-05-03 20:59 44.08818 27.41543 40130 ft 496 kts 300°
2026-05-03 20:59 44.12139 27.33140 40132 ft 496 kts 300°
2026-05-03 21:00 44.14920 27.26084 40139 ft 496 kts 300°
2026-05-03 21:00 44.18762 27.16307 40142 ft 495 kts 300°
2026-05-03 21:01 44.22062 27.07881 40140 ft 495 kts 300°
2026-05-03 21:01 44.25356 26.99445 40141 ft 495 kts 300°
2026-05-03 21:02 44.28647 26.90995 40143 ft 495 kts 300°
2026-05-03 21:02 44.31924 26.82552 40144 ft 495 kts 300°
2026-05-03 21:03 44.35200 26.74086 40149 ft 495 kts 300°
2026-05-03 21:03 44.38469 26.65614 40156 ft 495 kts 300°
2026-05-03 21:04 44.41731 26.57136 40150 ft 495 kts 300°
2026-05-03 21:04 44.44982 26.48657 40161 ft 495 kts 300°
2026-05-03 21:05 44.48211 26.40212 40162 ft 495 kts 300°
2026-05-03 21:05 44.51446 26.31724 40165 ft 493 kts 300°
2026-05-03 21:06 44.54667 26.23248 40157 ft 493 kts 300°
2026-05-03 21:06 44.57885 26.14755 40156 ft 493 kts 300°
2026-05-03 21:07 44.61094 26.06257 40156 ft 493 kts 300°
2026-05-03 21:07 44.64293 25.97761 40158 ft 492 kts 300°
2026-05-03 21:08 44.67485 25.89258 40157 ft 492 kts 300°
2026-05-03 21:08 44.70669 25.80751 40149 ft 492 kts 300°
2026-05-03 21:09 44.73845 25.72235 40162 ft 491 kts 300°
2026-05-03 21:09 44.77012 25.63720 40168 ft 491 kts 300°
2026-05-03 21:10 44.80171 25.55201 40176 ft 491 kts 300°
2026-05-03 21:10 44.83325 25.46668 40172 ft 491 kts 300°
2026-05-03 21:11 44.86476 25.38117 40187 ft 491 kts 300°
2026-05-03 21:11 44.89616 25.29569 40196 ft 491 kts 300°
2026-05-03 21:12 44.92732 25.21058 40195 ft 491 kts 300°
2026-05-03 21:12 44.95861 25.12485 40206 ft 491 kts 301°
2026-05-03 21:13 44.98975 25.03928 40206 ft 489 kts 301°
2026-05-03 21:13 45.02072 24.95388 40207 ft 488 kts 300°
2026-05-03 21:14 45.05163 24.86842 40205 ft 488 kts 301°
2026-05-03 21:14 45.08248 24.78285 40223 ft 488 kts 300°
2026-05-03 21:15 45.11325 24.69724 40227 ft 488 kts 300°
2026-05-03 21:15 45.14399 24.61142 40235 ft 488 kts 300°
2026-05-03 21:16 45.17465 24.52558 40244 ft 488 kts 300°
2026-05-03 21:16 45.20493 24.44046 40231 ft 486 kts 300°
2026-05-03 21:17 45.23036 24.36880 40240 ft 485 kts 300°
2026-05-03 21:17 45.26556 24.26931 40249 ft 485 kts 300°
2026-05-03 21:18 45.29574 24.18372 40242 ft 483 kts 300°
2026-05-03 21:18 45.32567 24.09852 40241 ft 481 kts 300°
2026-05-03 21:19 45.35549 24.01342 40225 ft 481 kts 300°
2026-05-03 21:19 45.38524 23.92826 40227 ft 481 kts 300°
2026-05-03 21:20 45.41486 23.84314 40205 ft 479 kts 300°
2026-05-03 21:20 45.44431 23.75827 40211 ft 477 kts 300°
2026-05-03 21:21 45.47347 23.67399 40221 ft 478 kts 300°
2026-05-03 21:21 45.50276 23.58909 40196 ft 478 kts 300°
2026-05-03 21:22 45.53200 23.50400 40195 ft 477 kts 300°
2026-05-03 21:22 45.56117 23.41888 40200 ft 479 kts 299°
2026-05-03 21:23 45.59042 23.33324 40198 ft 480 kts 299°
2026-05-03 21:23 45.61960 23.24749 40191 ft 480 kts 299°
2026-05-03 21:24 45.64863 23.16196 40201 ft 478 kts 299°
2026-05-03 21:24 45.67755 23.07644 40202 ft 478 kts 299°
2026-05-03 21:25 45.70641 22.99084 40198 ft 478 kts 299°
2026-05-03 21:25 45.73519 22.90521 40192 ft 478 kts 299°
2026-05-03 21:26 45.76394 22.81939 40195 ft 478 kts 299°
2026-05-03 21:26 45.79257 22.73361 40192 ft 477 kts 299°
2026-05-03 21:27 45.82098 22.64825 40193 ft 478 kts 299°
2026-05-03 21:27 45.84949 22.56228 40184 ft 478 kts 299°
2026-05-03 21:28 45.87794 22.47624 40186 ft 477 kts 299°
2026-05-03 21:28 45.90631 22.39012 40184 ft 477 kts 299°
2026-05-03 21:29 45.93462 22.30391 40175 ft 477 kts 298°
2026-05-03 21:29 45.96287 22.21764 40177 ft 476 kts 298°
2026-05-03 21:30 45.99094 22.13157 40179 ft 475 kts 298°
2026-05-03 21:30 46.01895 22.04544 40173 ft 475 kts 298°
2026-05-03 21:31 46.04688 21.95927 40170 ft 475 kts 298°
2026-05-03 21:31 46.07471 21.87310 40164 ft 474 kts 298°
2026-05-03 21:32 46.10240 21.78706 40164 ft 473 kts 298°
2026-05-03 21:32 46.13003 21.70097 40167 ft 473 kts 298°
2026-05-03 21:33 46.15762 21.61470 40161 ft 474 kts 298°
2026-05-03 21:33 46.18511 21.52846 40158 ft 473 kts 298°
2026-05-03 21:34 46.21255 21.44206 40158 ft 473 kts 297°
2026-05-03 21:34 46.23987 21.35577 40158 ft 473 kts 297°
2026-05-03 21:35 46.26715 21.26928 40157 ft 473 kts 297°
2026-05-03 21:35 46.29419 21.18331 40163 ft 472 kts 297°
2026-05-03 21:36 46.32127 21.09688 40154 ft 472 kts 297°
2026-05-03 21:36 46.34827 21.01044 40161 ft 472 kts 297°
2026-05-03 21:37 46.37522 20.92386 40158 ft 472 kts 297°
2026-05-03 21:37 46.40209 20.83722 40155 ft 471 kts 297°
2026-05-03 21:38 46.42879 20.75083 40161 ft 470 kts 297°
2026-05-03 21:38 46.45544 20.66434 40161 ft 470 kts 297°
2026-05-03 21:39 46.48201 20.57779 40159 ft 470 kts 297°
2026-05-03 21:39 46.50849 20.49126 40156 ft 469 kts 297°
2026-05-03 21:40 46.53482 20.40488 40157 ft 467 kts 297°
2026-05-03 21:40 46.56108 20.31847 40159 ft 467 kts 297°
2026-05-03 21:41 46.58726 20.23204 40159 ft 467 kts 297°
2026-05-03 21:41 46.61338 20.14547 40158 ft 467 kts 297°
2026-05-03 21:42 46.63944 20.05883 40158 ft 467 kts 297°
2026-05-03 21:42 46.66525 19.97270 40162 ft 467 kts 297°
2026-05-03 21:43 46.69134 19.88536 40158 ft 468 kts 296°
2026-05-03 21:43 46.71722 19.79842 40155 ft 467 kts 296°
2026-05-03 21:44 46.74280 19.71213 40158 ft 466 kts 296°
2026-05-03 21:44 46.76848 19.62525 40160 ft 466 kts 296°
2026-05-03 21:45 46.79409 19.53828 40154 ft 467 kts 296°
2026-05-03 21:45 46.81962 19.45130 40147 ft 466 kts 296°
2026-05-03 21:46 46.84506 19.36429 40153 ft 465 kts 296°
2026-05-03 21:46 46.87038 19.27738 40150 ft 465 kts 296°
2026-05-03 21:47 46.89569 19.19023 40151 ft 465 kts 296°
2026-05-03 21:47 46.91663 19.11787 40140 ft 465 kts 296°
2026-05-03 21:48 46.94579 19.01673 40144 ft 464 kts 296°
2026-05-03 21:48 46.97078 18.92976 40136 ft 464 kts 296°
2026-05-03 21:49 46.99569 18.84273 40134 ft 464 kts 295°
2026-05-03 21:49 47.01653 18.76971 40144 ft 463 kts 295°
2026-05-03 21:50 47.04127 18.68270 40144 ft 462 kts 295°
2026-05-03 21:50 47.06591 18.59575 40145 ft 461 kts 295°
2026-05-03 21:51 47.09032 18.50928 40138 ft 462 kts 295°
2026-05-03 21:51 47.11497 18.42167 40138 ft 462 kts 295°
2026-05-03 21:52 47.13937 18.33463 40133 ft 460 kts 295°
2026-05-03 21:52 47.16345 18.24837 40132 ft 459 kts 294°
2026-05-03 21:53 47.18765 18.16143 40132 ft 459 kts 294°
2026-05-03 21:53 47.21177 18.07448 40135 ft 459 kts 294°
2026-05-03 21:54 47.23582 17.98741 40124 ft 460 kts 294°
2026-05-03 21:54 47.25981 17.90026 40119 ft 459 kts 294°
2026-05-03 21:55 47.28372 17.81308 40112 ft 459 kts 294°
2026-05-03 21:55 47.30755 17.72588 40105 ft 459 kts 294°
2026-05-03 21:56 47.33132 17.63856 40100 ft 459 kts 293°
2026-05-03 21:56 47.35499 17.55131 40102 ft 458 kts 293°
2026-05-03 21:57 47.37844 17.46453 40102 ft 458 kts 293°
2026-05-03 21:57 47.40196 17.37718 40102 ft 458 kts 293°
2026-05-03 21:58 47.42541 17.28974 40088 ft 458 kts 292°
2026-05-03 21:58 47.44880 17.20222 40099 ft 458 kts 292°
2026-05-03 21:59 47.47215 17.11453 40096 ft 458 kts 292°
2026-05-03 21:59 47.49540 17.02689 40092 ft 458 kts 292°
2026-05-03 22:00 47.51861 16.93906 40094 ft 458 kts 292°
2026-05-03 22:00 47.54171 16.85132 40087 ft 457 kts 292°
2026-05-03 22:01 47.56468 16.76372 40086 ft 455 kts 292°
2026-05-03 22:01 47.58794 16.67656 40087 ft 455 kts 292°
2026-05-03 22:02 47.61182 16.58962 40087 ft 456 kts 293°
2026-05-03 22:02 47.63567 16.50243 40080 ft 456 kts 293°
2026-05-03 22:03 47.65931 16.41517 40071 ft 456 kts 292°
2026-05-03 22:03 47.68264 16.32853 40073 ft 455 kts 292°
2026-05-03 22:04 47.70605 16.24123 40070 ft 456 kts 292°
2026-05-03 22:04 47.72949 16.15352 40063 ft 456 kts 292°
2026-05-03 22:05 47.75281 16.06596 40067 ft 456 kts 292°
2026-05-03 22:05 47.77607 15.97829 40064 ft 455 kts 292°
2026-05-03 22:06 47.79922 15.89069 40063 ft 456 kts 292°
2026-05-03 22:06 47.82235 15.80284 40047 ft 456 kts 292°
2026-05-03 22:07 47.84535 15.71513 40047 ft 453 kts 292°
2026-05-03 22:07 47.86787 15.62890 40048 ft 447 kts 292°
2026-05-03 22:08 47.89046 15.54217 40030 ft 449 kts 291°
2026-05-03 22:08 47.91308 15.45499 40032 ft 452 kts 292°
2026-05-03 22:09 47.93565 15.36766 40031 ft 450 kts 291°
2026-05-03 22:10 47.96911 15.23751 40021 ft 448 kts 291°
2026-05-03 22:10 47.99126 15.15098 40015 ft 450 kts 291°
2026-05-03 22:11 48.01360 15.06338 39997 ft 451 kts 291°
2026-05-03 22:11 48.03582 14.97590 40003 ft 452 kts 291°
2026-05-03 22:12 48.05812 14.88774 39987 ft 454 kts 290°
2026-05-03 22:12 48.08041 14.79930 39987 ft 455 kts 290°
2026-05-03 22:13 48.10263 14.71080 39969 ft 454 kts 290°
2026-05-03 22:13 48.12478 14.62221 39950 ft 455 kts 290°
2026-05-03 22:14 48.14691 14.53336 39950 ft 456 kts 290°
2026-05-03 22:14 48.16900 14.44432 39948 ft 456 kts 290°
2026-05-03 22:15 48.19090 14.35568 39940 ft 456 kts 290°
2026-05-03 22:15 48.21284 14.26652 39938 ft 456 kts 290°
2026-05-03 22:16 48.23475 14.17714 39940 ft 457 kts 289°
2026-05-03 22:16 48.25659 14.08771 39939 ft 457 kts 289°
2026-05-03 22:17 48.27839 13.99807 39942 ft 457 kts 289°
2026-05-03 22:17 48.30009 13.90843 39941 ft 457 kts 289°
2026-05-03 22:18 48.32175 13.81865 39945 ft 457 kts 289°
2026-05-03 22:18 48.34333 13.72878 39944 ft 457 kts 289°
2026-05-03 22:19 48.36482 13.63896 39947 ft 457 kts 289°
2026-05-03 22:19 48.38628 13.54892 39946 ft 457 kts 289°
2026-05-03 22:20 48.40762 13.45895 39960 ft 457 kts 288°
2026-05-03 22:20 48.42890 13.36893 39947 ft 456 kts 288°
2026-05-03 22:21 48.45060 13.27938 39954 ft 455 kts 290°
2026-05-03 22:21 48.47413 13.19147 39952 ft 456 kts 291°
2026-05-03 22:22 48.49800 13.10295 39950 ft 455 kts 290°
2026-05-03 22:22 48.52147 13.01422 39956 ft 456 kts 290°
2026-05-03 22:23 48.54473 12.92521 39958 ft 457 kts 290°
2026-05-03 22:23 48.56793 12.83593 39957 ft 457 kts 290°
2026-05-03 22:24 48.59108 12.74654 39959 ft 457 kts 290°
2026-05-03 22:24 48.61413 12.65721 39962 ft 456 kts 290°
2026-05-03 22:25 48.63710 12.56786 39967 ft 456 kts 290°
2026-05-03 22:25 48.65998 12.47852 39969 ft 455 kts 290°
2026-05-03 22:26 48.68279 12.38909 39974 ft 455 kts 289°
2026-05-03 22:26 48.70536 12.30023 39975 ft 456 kts 289°
2026-05-03 22:27 48.72806 12.21053 39982 ft 457 kts 289°
2026-05-03 22:27 48.74885 12.11986 39979 ft 456 kts 282°
2026-05-03 22:28 48.76083 12.02566 39988 ft 455 kts 278°
2026-05-03 22:28 48.77107 11.93097 39992 ft 455 kts 278°
2026-05-03 22:29 48.78100 11.83624 39994 ft 455 kts 277°
2026-05-03 22:29 48.79094 11.74160 39992 ft 454 kts 277°
2026-05-03 22:30 48.80089 11.64703 39992 ft 454 kts 278°
2026-05-03 22:30 48.81093 11.55248 39994 ft 454 kts 278°
2026-05-03 22:31 48.82078 11.45783 39993 ft 454 kts 277°
2026-05-03 22:31 48.83035 11.36321 39988 ft 451 kts 277°
2026-05-03 22:31 48.83539 11.31650 39489 ft 448 kts 279°
2026-05-03 22:32 48.84358 11.27042 38594 ft 457 kts 287°
2026-05-03 22:32 48.85641 11.22589 37531 ft 466 kts 296°
2026-05-03 22:32 48.87421 11.18431 36538 ft 474 kts 305°
2026-05-03 22:32 48.89650 11.14723 35765 ft 476 kts 312°
2026-05-03 22:33 48.92043 11.11234 35014 ft 477 kts 314°
2026-05-03 22:33 48.94481 11.07827 34427 ft 474 kts 315°
2026-05-03 22:33 48.96924 11.04468 33829 ft 471 kts 315°
2026-05-03 22:33 48.99342 11.01145 33235 ft 468 kts 314°
2026-05-03 22:34 49.01711 10.97868 32684 ft 464 kts 314°
2026-05-03 22:34 49.04082 10.94565 32129 ft 460 kts 314°
2026-05-03 22:34 49.06421 10.91287 31577 ft 456 kts 314°
2026-05-03 22:34 49.08744 10.88019 31035 ft 452 kts 314°
2026-05-03 22:35 49.11072 10.84734 30467 ft 449 kts 314°
2026-05-03 22:35 49.13353 10.81504 29912 ft 445 kts 314°
2026-05-03 22:35 49.15583 10.78342 29340 ft 441 kts 314°
2026-05-03 22:35 49.17819 10.75168 28803 ft 436 kts 314°
2026-05-03 22:36 49.20027 10.72032 28267 ft 431 kts 314°
2026-05-03 22:36 49.22146 10.68832 27754 ft 426 kts 310°
2026-05-03 22:36 49.24183 10.65568 27214 ft 422 kts 310°
2026-05-03 22:36 49.26200 10.62332 26686 ft 418 kts 310°
2026-05-03 22:37 49.28208 10.59131 26155 ft 415 kts 310°
2026-05-03 22:37 49.30202 10.55962 25619 ft 412 kts 310°
2026-05-03 22:37 49.32187 10.52813 25093 ft 409 kts 310°
2026-05-03 22:37 49.34157 10.49687 24558 ft 407 kts 310°
2026-05-03 22:38 49.36060 10.46505 24009 ft 402 kts 305°
2026-05-03 22:38 49.37714 10.43097 23605 ft 395 kts 301°
2026-05-03 22:38 49.39291 10.39648 23162 ft 395 kts 301°
2026-05-03 22:38 49.40861 10.36196 22764 ft 393 kts 301°
2026-05-03 22:39 49.42421 10.32766 22359 ft 391 kts 301°
2026-05-03 22:39 49.43977 10.29346 21974 ft 390 kts 301°
2026-05-03 22:39 49.45525 10.25941 21575 ft 388 kts 301°
2026-05-03 22:39 49.47068 10.22543 21166 ft 386 kts 301°
2026-05-03 22:40 49.48598 10.19171 20782 ft 384 kts 301°
2026-05-03 22:40 49.50122 10.15808 20407 ft 382 kts 301°
2026-05-03 22:40 49.51632 10.12470 20013 ft 379 kts 301°
2026-05-03 22:40 49.53136 10.09145 19648 ft 377 kts 301°
2026-05-03 22:41 49.54634 10.05837 19261 ft 375 kts 301°
2026-05-03 22:41 49.56117 10.02547 18877 ft 373 kts 301°
2026-05-03 22:41 49.57594 9.99265 18501 ft 371 kts 301°
2026-05-03 22:41 49.59062 9.96007 18086 ft 369 kts 301°
2026-05-03 22:42 49.60519 9.92766 17693 ft 367 kts 301°
2026-05-03 22:42 49.61477 9.90629 17465 ft 366 kts 301°
2026-05-03 22:42 49.62918 9.87410 17085 ft 363 kts 301°
2026-05-03 22:42 49.64809 9.83184 16590 ft 360 kts 301°
2026-05-03 22:43 49.66223 9.80020 16224 ft 357 kts 300°
2026-05-03 22:43 49.67631 9.76864 15861 ft 355 kts 300°
2026-05-03 22:43 49.69025 9.73739 15497 ft 353 kts 300°
2026-05-03 22:43 49.70412 9.70627 15132 ft 350 kts 300°
2026-05-03 22:44 49.71343 9.68535 14879 ft 348 kts 300°
2026-05-03 22:44 49.72709 9.65463 14529 ft 346 kts 300°
2026-05-03 22:44 49.74064 9.62413 14185 ft 343 kts 299°
2026-05-03 22:44 49.75416 9.59380 13839 ft 341 kts 299°
2026-05-03 22:45 49.76754 9.56355 13467 ft 339 kts 299°
2026-05-03 22:45 49.78082 9.53346 13110 ft 339 kts 299°
2026-05-03 22:45 49.79409 9.50334 12769 ft 339 kts 300°
2026-05-03 22:45 49.80721 9.47361 12422 ft 338 kts 299°
2026-05-03 22:46 49.82041 9.44365 12084 ft 337 kts 300°
2026-05-03 22:46 49.83356 9.41381 11725 ft 335 kts 299°
2026-05-03 22:46 49.84664 9.38412 11402 ft 332 kts 299°
2026-05-03 22:46 49.85920 9.35432 11105 ft 327 kts 295°
2026-05-03 22:47 49.87266 9.32580 11011 ft 335 kts 310°
2026-05-03 22:47 49.89220 9.30519 11012 ft 346 kts 329°
2026-05-03 22:47 49.91440 9.29047 10932 ft 345 kts 333°
2026-05-03 22:47 49.93664 9.27691 10374 ft 344 kts 333°
2026-05-03 22:48 49.95902 9.26363 9763 ft 344 kts 333°
2026-05-03 22:48 49.98072 9.25105 9367 ft 320 kts 334°
2026-05-03 22:48 50.00107 9.23944 8806 ft 306 kts 334°
2026-05-03 22:48 50.02087 9.22818 8186 ft 303 kts 334°
2026-05-03 22:49 50.04050 9.21694 7837 ft 298 kts 334°
2026-05-03 22:49 50.05981 9.20585 7466 ft 295 kts 333°
2026-05-03 22:49 50.07906 9.19501 7039 ft 294 kts 334°
2026-05-03 22:49 50.09808 9.18377 6602 ft 290 kts 329°
2026-05-03 22:50 50.11362 9.16568 6223 ft 272 kts 304°
2026-05-03 22:50 50.12238 9.14080 5951 ft 256 kts 286°
2026-05-03 22:50 50.12817 9.11517 5691 ft 246 kts 284°
2026-05-03 22:50 50.13335 9.09024 5445 ft 238 kts 284°
2026-05-03 22:51 50.13824 9.06607 5218 ft 231 kts 284°
2026-05-03 22:51 50.14253 9.04240 4960 ft 222 kts 276°
2026-05-03 22:51 50.14150 9.01904 4722 ft 213 kts 256°
2026-05-03 22:51 50.13754 8.99708 4478 ft 208 kts 251°
2026-05-03 22:52 50.13271 8.97607 4225 ft 204 kts 249°
2026-05-03 22:52 50.12782 8.95567 4024 ft 197 kts 249°
2026-05-03 22:52 50.12310 8.93595 4026 ft 193 kts 249°
2026-05-03 22:52 50.11850 8.91657 4018 ft 194 kts 249°
2026-05-03 22:53 50.11396 8.89733 4014 ft 181 kts 249°
2026-05-03 22:53 50.10967 8.87913 4020 ft 174 kts 249°
2026-05-03 22:53 50.10556 8.86170 4013 ft 174 kts 249°
2026-05-03 22:53 50.10139 8.84412 3879 ft 172 kts 249°
2026-05-03 22:54 50.09725 8.82677 3645 ft 171 kts 249°
2026-05-03 22:54 50.09312 8.80940 3398 ft 171 kts 250°
2026-05-03 22:54 50.08905 8.79226 3158 ft 168 kts 250°
2026-05-03 22:54 50.08657 8.78186 3017 ft 160 kts 250°
2026-05-03 22:55 50.08285 8.76624 2801 ft 148 kts 249°
2026-05-03 22:55 50.07941 8.75177 2609 ft 137 kts 250°
2026-05-03 22:55 50.07622 8.73834 2441 ft 128 kts 249°
2026-05-03 22:55 50.07317 8.72551 2269 ft 126 kts 249°
2026-05-03 22:56 50.07010 8.71262 2101 ft 128 kts 249°
2026-05-03 22:56 50.06701 8.69966 1920 ft 128 kts 248°
2026-05-03 22:56 50.06391 8.68666 1755 ft 128 kts 248°
2026-05-03 22:56 50.06083 8.67372 1587 ft 128 kts 248°
2026-05-03 22:57 50.05772 8.66069 1404 ft 128 kts 248°
2026-05-03 22:57 50.05460 8.64761 1236 ft 129 kts 248°
2026-05-03 22:57 50.05137 8.63445 1045 ft 132 kts 248°
2026-05-03 22:57 50.04821 8.62085 879 ft 135 kts 250°
2026-05-03 22:58 50.04496 8.60698 692 ft 136 kts 248°
2026-05-03 22:58 50.04164 8.59308 507 ft 138 kts 250°
2026-05-03 22:58 50.03825 8.57907 385 ft 136 kts 249°
2026-05-03 22:58 50.03525 8.56646 362 ft 97 kts 250°
2026-05-03 22:59 50.03363 8.55976 359 ft 29 kts 249°
2026-05-03 22:59 50.03317 8.55708 358 ft 27 kts 265°
2026-05-03 22:59 50.03324 8.55407 355 ft 29 kts 278°
2026-05-03 22:59 50.03360 8.55086 355 ft 31 kts 279°
2026-05-03 23:00 50.03333 8.54805 357 ft 28 kts 248°
2026-05-03 23:00 50.03283 8.54579 355 ft 13 kts 269°
2026-05-03 23:00 50.03345 8.54470 353 ft 15 kts 331°
2026-05-03 23:00 50.03445 8.54402 359 ft 16 kts 339°
2026-05-03 23:01 50.03558 8.54335 355 ft 17 kts 339°
2026-05-03 23:01 50.03633 8.54320 352 ft 11 kts 16°
2026-05-03 23:01 50.03681 8.54423 357 ft 14 kts 68°
2026-05-03 23:01 50.03718 8.54571 361 ft 16 kts 69°
2026-05-03 23:02 50.03758 8.54741 359 ft 18 kts 70°
2026-05-03 23:02 50.03805 8.54936 360 ft 21 kts 70°
2026-05-03 23:02 50.03859 8.55157 361 ft 23 kts 69°
2026-05-03 23:02 50.03919 8.55407 360 ft 26 kts 69°
2026-05-03 23:03 50.03981 8.55672 361 ft 27 kts 69°
2026-05-03 23:03 50.04044 8.55919 362 ft 16 kts 51°
2026-05-03 23:03 50.04144 8.55943 367 ft 16 kts 337°
2026-05-03 23:03 50.04251 8.55950 369 ft 15 kts 12°
2026-05-03 23:04 50.04362 8.55919 368 ft 17 kts 342°
2026-05-03 23:04 50.04482 8.55941 369 ft 18 kts 19°
2026-05-03 23:04 50.04555 8.55977 368 ft 8 kts 12°
2026-05-03 23:04 50.04602 8.55967 367 ft 4 kts 341°
2026-05-03 23:05 50.04628 8.55952 368 ft 2 kts 340°
2026-05-03 23:05 50.04636 8.55948 369 ft 0 kts 340°
2026-05-03 23:05 50.04639 8.55946 368 ft 1 kts 340°
2026-05-03 23:05 50.04642 8.55944 368 ft 0 kts 340°
2026-05-03 23:06 50.04643 8.55944 368 ft 0 kts 340°